Regional Weather Roundup
Issued by NWS Grand Forks, ND

Home | Current Version | Previous Version | Graphics & Text | Print | Product List | Glossary On
Versions: 1 2 3 4 5 6 7 8 9 10 11 12 13 14 15 16 17 18 19 20 21 22 23 24 25 26 27 28 29 30 31 32 33 34 35 36 37 38 39 40 41 42 43 44 45 46 47 48 49 50
000
ASUS43 KFGF 051010
RWRFGF
PRAIRIE TO PINES  WEATHER ROUNDUP
NATIONAL WEATHER SERVICE EASTERN NORTH DAKOTA/GRAND FORKS ND
500 AM CDT SUN JUL 05 2015

 **SATELLITE DATA USED TO AUGMENT SKY COVER AT AUTOMATED STATIONS**
 *****  WEATHER ACROSS EASTERN NORTH DAKOTA  *****

CITY           SKY/WX    TMP DP  RH WIND       PRES   REMARKS
GRAND FORKS    MOCLDY    68  67  96 SE10      29.73F
GRAND FRKS AFB MOCLDY    67  65  94 SE8       29.75F
GRAND FRKS NWS   N/A     66 N/A N/A E12         N/A
DEVILS LAKE    PTCLDY    66  61  82 NE8       29.72F
FARGO          MOCLDY    71  65  81 S13       29.75R
WAHPETON ARPT  CLOUDY    68  63  83 SE12      29.79S
$$

 ***** WEATHER ACROSS CENTRAL AND WESTERN NORTH DAKOTA  *****

CITY           SKY/WX    TMP DP  RH WIND       PRES   REMARKS
BISMARCK       PTCLDY    68  67  96 E7        29.70F
MINOT          CLOUDY    62  60  93 N9        29.76R FOG
JAMESTOWN      CLEAR     68  65  90 SE7       29.73S
MINOT AFB      MOCLDY    62  62 100 N8        29.77R
GARRISON         N/A     66  62  87 N7        29.72F
WILLISTON      RAIN      66  63  90 N22G28    29.87R
DICKINSON      PTCLDY    62  60  93 NE8       29.72F
HETTINGER      CLEAR     58  56  93 CALM      29.74F
$$

 *****  OTHER AIRPORT OBSERVATIONS IN OUR AREA  *****

CITY           SKY/WX    TMP DP  RH WIND       PRES   REMARKS
WALHALLA       FAIR      63  63 100 MISG      29.75F
GRAFTON AIRPOR FAIR      64  64 100 S7        29.74F
VALLEY CITY AR FAIR      68  68 100 SE7       29.74S
CANDO          CLOUDY    63  63 100 NE9       29.76S
CAVALIER APRT  PTSUNNY   66  64  94 S9        29.74F
GWINNER          N/A     72  70  94 S8        29.75F
SHEYENNE NWR     N/A     69  67  92 SE5       29.95
ROLLA          CLOUDY    63  63 100 NE7       29.80S FOG
 ***** THE ABOVE OBSERVATIONS ARE NON NWS ARE NOT QUALITY
       CONTROLLED AND MAY MIS-REPORT RAIN FOR SNOW...
$$

  *****  WEATHER ACROSS NORTHERN MINNESOTA  *****

CITY           SKY/WX    TMP DP  RH WIND       PRES   REMARKS
FLAG ISLAND    NOT AVBL
WARROAD        CLOUDY    64  61  88 S14G20    29.78S
ROSEAU         CLOUDY    64  59  82 SE10      29.77F
HALLOCK        MOCLDY    64  63  94 S7        29.74S
THF RVR FALLS  CLOUDY    64  63  94 SE12      29.77F
BAUDETTE       CLOUDY    64  61  90 S10       29.80F
WASKISH        CLOUDY    66  64  94 S3        29.84F
CROOKSTON      TSTM      66  66 100 E3        29.82R
$$
  *****  WEATHER ACROSS CENTRAL AND WEST MINNESOTA  *****

CITY           SKY/WX    TMP DP  RH WIND       PRES   REMARKS
FOSSTON        CLOUDY    63  61  94 E8        29.80F
BEMIDJI        TSTM      63  62  96 CALM      29.88F
PARK RAPIDS    CLOUDY    69  64  84 NE9       29.88R HAZE
ELBOW LAKE     FAIR      66  63  89 SE13      29.82F
WADENA         CLOUDY    64  63  94 SE8       29.85S FOG
DETROIT LAKES  CLOUDY    70  64  83 SE9       29.82F
MOORHEAD       CLOUDY    70  64  83 S15G21    29.76F
FERGUS FALLS   CLOUDY    70  63  78 S12       29.81S
MORRIS MN      PTCLDY    66  63  88 SE10      29.83S FOG
STAPLES        MOCLDY    64  63  94 S6        29.87S
$$
  *****  WEATHER ELSEWHERE ACROSS MINNESOTA  *****

CITY           SKY/WX    TMP DP  RH WIND       PRES   REMARKS
DULUTH         MOCLDY    57  53  86 SE6       29.93F
INTRNTL FALLS  LGT RAIN  65  63  93 SW10G21   29.83S FOG
ELY            MOCLDY    64  61  88 SW8       29.89F
CLOQUET        PTCLDY    55  55 100 SE3       29.93S FOG
WHEATON        MOCLDY    66  63  88 SE9       29.82S
BRAINERD       MOCLDY    63  61  93 S5        29.89S FOG
HIBBING        MOCLDY    56  55  97 SE5       29.90F FOG
ALEXANDRIA     MOCLDY    66  62  87 SE8       29.88R
SAINT CLOUD    CLEAR     62  60  93 SE6       29.91R
MINNEAPOLIS    PTCLDY    67  59  75 SE6       29.93S
$$

  *****  WEATHER ACROSS SOUTH DAKOTA  *****

CITY           SKY/WX    TMP DP  RH WIND       PRES   REMARKS
SIOUX FALLS    CLOUDY    70  62  76 S14       29.86R
BROOKINGS      CLOUDY    68  61  77 S7        29.88R
WATERTOWN      CLOUDY    70  64  81 S14       29.86R
HURON          MOCLDY    70  66  87 E14       29.79R
SISSETON         N/A     72  64  76 S15       29.76F
ABERDEEN       MOCLDY    73  64  73 MISG      29.75F
MITCHELL       MOCLDY    71  65  81 SE7       29.81R
PIERRE         CLEAR     69  60  73 S3        29.71R
MOBRIDGE       CLEAR     70  69  97 E9        29.68F
RAPID CITY     CLEAR     65  61  87 SE5       29.78F
$$

  *****  SOME WEATHER IN NEARBY STATES *****

CITY           SKY/WX    TMP DP  RH WIND       PRES   REMARKS
GLASGOW MT     MOCLDY    59  53  80 N20       29.88F
GREAT FALLS MT CLOUDY    56  51  84 NW16      30.08S
CHEYENNE WY    MOCLDY    65  48  54 W3        30.01F
SCOTTSBLUFF NE CLEAR     64  60  87 NE3       29.87R
OMAHA NE       PTCLDY    70  63  78 S15       29.92F
DES MOINES IA  CLEAR     65  59  81 S8        29.97F
DAVENPORT IA   CLEAR     61  58  90 S6        30.05R FOG
CHICAGO IL     CLEAR     60  57  89 CALM      30.06S FOG
EAU CLAIRE WI  CLEAR     65  60  84 CALM      29.98R
LA CROSSE WI   CLEAR     66  63  90 S8        30.00R
$$

  *****  SOME NATIONAL WEATHER *****

CITY           SKY/WX    TMP DP  RH WIND       PRES   REMARKS
LA GUARDIA NY  CLOUDY    71  59  65 W5        30.06R
RALEIGH NC     MOCLDY    72  68  87 SW6       30.09R
ATLANTA GA     CLOUDY    69  66  90 W6        30.11R
NEW ORLEANS LA LGT RAIN  79  74  84 CALM      30.09R
OKLAHOMA CITY  MOCLDY    73  71  93 S7        29.95R
ALBUQUERQUE NM CLOUDY    68  57  68 SE5       30.14R
SALT LAKE CITY LGT RAIN  79  58  48 SE5       29.94S
LOS ANGELES CA CLOUDY    64  59  83 NW5       29.94S
BOISE ID       PTCLDY    77  48  35 CALM      29.82R
SEATTLE WA     CLEAR     72  49  44 NE5       29.81S
$$

*** WEATHER ACROSS MANITOBA...SASKATCHEWAN AND ONTARIO ***
                ***ONTARIO***

CITY           SKY/WX    TMP DP  RH WIND       PRES   REMARKS
GERALDTON      MOCLDY    54  48  82 S9        29.89F
THUNDER BAY    PTCLDY    54  52  94 E8        29.89F
SIOUX LOOKOUT  CLOUDY    64  61  88 SW3       29.81R
TORONTO        MOCLDY    61  54  77 N5        30.07R
BIG TROUT LK   CLOUDY    63  63 100 W9        29.62R
PICKLE LAKE    NOT AVBL
DRYDEN         LGT RAIN  63  61  94 SW5       29.82R
KENORA         CLOUDY    61  61 100 NE3       29.78R
$$
                *** MANITOBA***

CITY           SKY/WX    TMP DP  RH WIND       PRES   REMARKS
BRANDON        CLEAR     55  55 100 N6        29.82S FOG
DAUPHIN        CLOUDY    55  54  94 SW5       29.81S FOG
ISLAND LAKE    CLOUDY    59  57  94 SW8       29.69R
PILOT MOUND      N/A     61  61 100 N6          N/A
THE PAS        SMOKE     57  52  82 W10       29.74F VSB 3/4
THOMPSON       PTCLDY    43  41  93 NW8       29.70S
WINNIPEG       CLOUDY    63  63 100 W3        29.78S FOG
LYNN LAKE      LGT RAIN  43  41  93 N13G18    29.80S
CHURCHILL      LGT RAIN  41  39  93 NE28G36   29.66S FOG
$$
                ***SASKATCHEWAN***

CITY           SKY/WX    TMP DP  RH WIND       PRES   REMARKS
ESTEVAN        CLOUDY    63  61  94 N7        29.86F
KINDERSLEY     PTCLDY    50  48  93 NW5       30.01F
LLOYDMINSTER   CLOUDY    52  50  93 NW9       30.01R
PRINCE ALBERT  MOCLDY    52  48  87 W7        29.90F
REGINA         CLOUDY    57  55  94 NW5       29.91R FOG
YORKTON        CLOUDY    55  54  94 NW7       29.86R FOG
N. BATTLEFORD  MOCLDY    54  48  82 W7        29.99R
LA RONGE       NOT AVBL
SASKATOON      PTCLDY    48  46  93 NW7       29.96R
SWIFT CURRENT  LGT RAIN  55  48  76 W12       30.01S
$$
NOTE: THESE ARE AUTOMATED STATIONS WITH LIMITED QUALITY CONTROL
      "FAIR" INDICATES FEW OR NO CLOUDS BELOW 12,000 FEET WITH NO
      SIGNIFICANT WEATHER AND/OR OBSTRUCTIONS TO VISIBILITY.
      SKY/WX - SKY CONDITION AND SIGNIFICANT WEATHER.
      TMP - AIR TEMPERATURE.    DP   - DEWPOINT TEMPERATURE.
      RH  - RELATIVE HUMIDITY.  PRES - PRESSURE.
      HX  - HEAT INDEX.         WCI  - WIND CHILL INDEX.
$


USA.gov is the U.S. government's official web portal to all federal, state and local government web resources and services.